Location: *
(49.5667°N, 1.3667°W)
Time: 01:14:02
(UTC+00:00)

Cosmos 1455 Rocket - Pass Details

Date: 20 September 2019
Orbit: 605 x 630 km, 82.5° (Epoch: 16 October)

Event Time Altitude Azimuth Distance (km) Brightness Sun altitude
Rises 19:08:55 0° 157° (SSE) 2,894 6.1 -10.5°
Reaches altitude 10° 19:11:24 10° 145° (SE) 1,997 5.2 -10.9°
Maximum altitude 19:15:05 27° 88° (E) 1,225 4.0 -11.5°
Drops below altitude 10° 19:18:50 10° 32° (NNE) 2,019 5.5 -12.0°
Sets 19:21:20 0° 20° (NNE) 2,933 6.5 -12.4°
